Location: Unspecified
(0.0000°N, 0.0000°E)
Time: 01:24:16
(UTC+00:00)

SEEDS - Pass Details

Date: 26 March 2019
Orbit: 585 x 605 km, 97.5° (Epoch: 19 July)

Event Time Altitude Azimuth Distance (km) Brightness Sun altitude
Rises 05:31:33 0° 28° (NNE) 2,794 ? -8.6°
Reaches altitude 10° 05:33:52 10° 38° (NE) 1,898 ? -8.0°
Maximum altitude 05:37:34 32° 102° (ESE) 1,008 ? -7.1°
Drops below altitude 10° 05:41:16 10° 165° (SSE) 1,911 ? -6.1°
Sets 05:43:36 0° 175° (S) 2,817 ? -5.6°
